BREEZE-M DEB, 34235

Orbit data source: Space-Track

BREEZE-M DEB, 34235 is space debris in HEO originally from a launch on Tue, 28 Feb 2006 UTC launched from the Tyuratam Missile And Space Complex (TTMTR). Debris objects in space refer to the collection of defunct objects orbiting the Earth. Examples of debris include non-operational satellites, rocket bodies, and fragments generated from explosions, collisions, or faulty payload assembly.

Loading next visibility...
Identifier
34235, 2006-006BA
Orbit
HEO
Country
Flag of CISCIS
Related business
Manufacturer
Khrunichev
Mission
Spacecraft
Bus & Motor
Unknown
Mass
Unknown
Launch date (UTC)
2006-02-28 (20 years ago)
Launch vehicle
Unknown
Launch site
Tyuratam Missile And Space Complex (TTMTR)
Object type
Payload
Rocket body
Debris
Shape & HBR
Unknown shape, 0.1 m
Radar Cross Section
Medium (>0.1 m² and <1 m²)

Expand to show TLE details & history
Last TLE update: 6 days ago

TLE from 6 days ago
0 BREEZE-M DEB
1 34235U 06006BA  26157.33441898  .00007017  00000-0  75389-2 0  9999
2 34235  51.6896  15.4336 4938288 128.0149 287.8365  5.52975078 39833
Epoch: 2026-06-06T08:01Z
TLE epoch observation values (Epoch: 2026-06-06T08:01:33.799Z)
Latitude
0.00002°
Longitude
0.30121°
Altitude
8,288.39 km
Speed
4.985 km/s
True Right ascension
01h 01m 46s
True Declination
0° 00' 00"
Sunlit
Object was in daylight at epoch
Visualization orbit readout
Latitude
Unknown
Longitude
Unknown
Altitude
Unknown
Speed
Unknown
Apparent Right ascension
Unknown
Apparent Declination
Unknown
Sunlit
N/A
Visualization observer readout
Local Sidereal Time
17:11:31
Azimuth
Unknown
Elevation
Unknown
Doppler factor
Unknown
Orbital elements
Apogee altitude
13,801.41 km
Perigee altitude
459.531 km
Semi-major axis
13,508.608 km
Eccentricity
0.49383
Inclination
51.6896°
RAAN
15.4336°
Arg. of periapsis
128.0149°
True anomaly
232.04492°
Mean anomaly
287.8365°
Eccentric anomaly
259.97426°
Mean motion
1.38238 °/min
Orbital period
260.42 mins
BSTAR
0.0075389
Loading maneuver chart data...
Computing Atmospheric mass density...
Loading historical data...
Loading historical data...
Loading historical data...
Loading historical data...
Loading historical data...
Loading historical data...
Loading historical data...

Documentation

Showing up to 5 results
|